Artesia, MS

7:23 AM CDT on September 27, 2016 (GMT -0500)
Golden Triangle Regional

Weather History for KGTR - November, 2013

Change the Weather History Date:

Wednesday, November 6, 2013

  Actual Average Record
Temperature  
Mean Temperature 60 °F -  
Max Temperature 71 °F 66 °F 80 °F (2005)
Min Temperature 50 °F 44 °F 28 °F (1998)
Degree Days  
Heating Degree Days 4    
Growing Degree Days 10 (Base 50)    
Moisture  
Dew Point 56 °F    
Average Humidity 74    
Maximum Humidity 88    
Minimum Humidity 60    
Precipitation  
Precipitation 0.30 in - - ()
Sea Level Pressure  
Sea Level Pressure 30.15 in    
Wind  
Wind Speed 8 mph (SSE)    
Max Wind Speed 17 mph    
Max Gust Speed 29 mph    
Visibility 10 miles    
Events      
Averages and records for this station are not official NWS values.
T = Trace of Precipitation, MM = Missing Value Source: NWS Daily Summary

Daily Weather History Graph

Daily Weather History Graph

Search for Another Location

Airport or City:

Trip Planner

Search our weather history database for the weather conditions in past years. The results will help you decide how hot, cold, wet, or windy it might be!

Date:

Astronomy

Nov. 06, 2013 Rise Set
Actual Time 6:17 AM CST 4:57 PM CST
Civil Twilight 5:51 AM CST 5:23 PM CST
Nautical Twilight 5:22 AM CST 5:53 PM CST
Astronomical Twilight 4:53 AM CST 6:22 PM CST
Moon 9:28 AM CST (11/6) 8:05 PM CST (11/6)
Length of Visible Light 11h 31m
Length of Day
10h 40m
Waxing Crescent, 14% of the Moon is Illuminated
Nov 6
Waxing Crescent
Nov 9
First Quarter
Nov 17
Full
Nov 25
Last Quarter
Dec 2
New

Hourly Weather History & Observations

Time (CST) Temp. Dew Point Humidity Pressure Visibility Wind Dir Wind Speed Gust Speed Precip Events Conditions
12:15 AM 57.2 °F - N/A% 30.22 in 10.0 mi SE 10.4 mph - N/A   Clear
12:35 AM 57.2 °F - N/A% 30.21 in 10.0 mi SE 12.7 mph - N/A   Clear
12:55 AM 55.4 °F - N/A% 30.21 in 10.0 mi SE 9.2 mph - N/A   Clear
1:15 AM 55.4 °F - N/A% 30.20 in 10.0 mi SE 9.2 mph - N/A   Clear
1:35 AM 55.4 °F - N/A% 30.20 in 10.0 mi SE 9.2 mph - N/A   Clear
1:55 AM 55.4 °F - N/A% 30.19 in 10.0 mi SE 8.1 mph - N/A   Clear
2:15 AM 53.6 °F - N/A% 30.18 in 10.0 mi SE 9.2 mph - N/A   Clear
2:35 AM 53.6 °F - N/A% 30.18 in 10.0 mi SE 8.1 mph - N/A   Clear
2:55 AM 53.6 °F - N/A% 30.18 in 10.0 mi SSE 6.9 mph - N/A   Clear
3:15 AM 53.6 °F - N/A% 30.17 in 10.0 mi SE 6.9 mph - N/A   Clear
3:35 AM 53.6 °F - N/A% 30.17 in 10.0 mi SE 6.9 mph - N/A   Clear
3:55 AM 51.8 °F - N/A% 30.17 in 10.0 mi SSE 6.9 mph - N/A   Clear
4:15 AM 51.8 °F - N/A% 30.17 in 10.0 mi SE 5.8 mph - N/A   Clear
4:35 AM 51.8 °F - N/A% 30.18 in 10.0 mi SSE 4.6 mph - N/A   Clear
4:55 AM 51.8 °F - N/A% 30.18 in 10.0 mi SSE 4.6 mph - N/A   Clear
5:15 AM 51.8 °F - N/A% 30.18 in 10.0 mi SSE 5.8 mph - N/A   Clear
5:35 AM 50.0 °F - N/A% 30.18 in 10.0 mi SSE 5.8 mph - N/A   Clear
5:45 AM 50.0 °F 44.6 °F 82% 30.18 in 10.0 mi SSE 5.8 mph - N/A   Scattered Clouds
5:55 AM 50.0 °F - N/A% 30.18 in 10.0 mi SE 5.8 mph - N/A   Clear
6:45 AM 50.0 °F 44.6 °F 82% 30.18 in 10.0 mi SSE 5.8 mph - N/A   Clear
7:45 AM 55.4 °F 46.4 °F 72% 30.20 in 10.0 mi SSE 11.5 mph - N/A   Clear
8:50 AM 60.8 °F 50.0 °F 68% 30.20 in 10.0 mi SSE 17.3 mph - N/A   Clear
9:45 AM 64.4 °F 51.8 °F 64% 30.20 in 10.0 mi South 13.8 mph 19.6 mph N/A   Mostly Cloudy
10:45 AM 68.0 °F 53.6 °F 60% 30.18 in 10.0 mi SSE 12.7 mph - N/A   Scattered Clouds
11:45 AM 69.8 °F 57.2 °F 64% 30.16 in 10.0 mi South 11.5 mph 17.3 mph N/A   Scattered Clouds
12:45 PM 71.6 °F 59.0 °F 64% 30.12 in 10.0 mi SSE 11.5 mph - N/A   Mostly Cloudy
1:55 PM 71.6 °F 59.0 °F 64% 30.10 in 10.0 mi South 11.5 mph - N/A   Scattered Clouds
2:50 PM 71.6 °F 60.8 °F 69% - 10.0 mi South 11.5 mph - N/A   Overcast
3:50 PM 69.8 °F 60.8 °F 73% 30.10 in 10.0 mi South 11.5 mph - N/A   Overcast
4:50 PM 66.2 °F 62.6 °F 88% 30.08 in 10.0 mi SSE 11.5 mph - N/A   Mostly Cloudy
5:50 PM 66.2 °F 62.6 °F 88% 30.09 in 10.0 mi South 9.2 mph - N/A   Mostly Cloudy
6:50 PM 66.2 °F 62.6 °F 88% 30.08 in 10.0 mi SSE 9.2 mph - N/A   Overcast
7:50 PM 66.2 °F 62.6 °F 88% 30.08 in 10.0 mi South 9.2 mph - N/A   Overcast
8:15 PM 66.2 °F - N/A% 30.08 in 10.0 mi South 5.8 mph - N/A   Overcast
8:35 PM 64.4 °F - N/A% 30.11 in 9.0 mi NNW 12.7 mph 28.8 mph 0.02 in   Overcast
8:55 PM 64.4 °F - N/A% 30.13 in 9.0 mi NW 6.9 mph - 0.11 in   Overcast
9:15 PM 62.6 °F - N/A% 30.12 in 10.0 mi North 4.6 mph - 0.14 in   Overcast
9:35 PM 62.6 °F - N/A% 30.12 in 10.0 mi NE 4.6 mph - 0.18 in   Overcast
9:55 PM 62.6 °F - N/A% 30.12 in 10.0 mi Calm Calm - 0.18 in   Overcast
10:15 PM 62.6 °F - N/A% 30.11 in 8.0 mi NE 3.5 mph - N/A   Overcast
10:35 PM 62.6 °F - N/A% 30.11 in 10.0 mi Calm Calm - N/A   Overcast
10:55 PM 62.6 °F - N/A% 30.12 in 9.0 mi Calm Calm - N/A   Overcast
11:15 PM 62.6 °F - N/A% 30.11 in 6.0 mi Calm Calm - 0.01 in   Overcast
11:35 PM 62.6 °F - N/A% 30.11 in 7.0 mi Calm Calm - 0.01 in   Overcast
11:55 PM 62.6 °F - N/A% 30.12 in 7.0 mi NW 3.5 mph - 0.01 in   Overcast